Location: *
(48.8780°N, 19.2358°E)
Time: 17:16:51
(UTC+00:00)

Daily predictions for brighter satellites

Satellite Brightness Start Highest point End
(mag) Time Altitude Azimuth Time Altitude Azimuth Time Altitude Azimuth
Meteor 2-12 Rocket 4.5 16:12:37 10° N 16:18:49 78° E 16:24:59 10° SSE
Unknown 3.7 16:15:20 10° WSW 16:19:29 81° NNW 16:23:39 10° ENE
Meteor 1-21 Rocket 4.4 16:13:46 10° NNW 16:19:42 86° ENE 16:25:30 10° SSE
Cosmos 1992 Rocket 4.0 16:14:55 10° S 16:20:05 68° ESE 16:25:18 10° NNE
Unknown 3.7 16:16:56 10° WSW 16:21:05 80° NNW 16:25:15 10° ENE
COBE Rocket 4.3 16:17:20 10° NNE 16:22:22 48° E 16:27:16 10° S
Unknown 3.7 16:18:34 10° WSW 16:22:43 80° NNW 16:26:53 10° ENE
Unknown 3.7 16:19:00 10° WSW 16:23:09 78° NNW 16:27:20 10° ENE
Cosmos 1461 4.0 16:20:31 10° NNW 16:24:00 27° NE 16:27:34 10° E
Cosmos 1606 Rocket 3.5 16:19:41 10° S 16:24:01 64° E 16:28:21 10° NNE
Cosmos 1939 Rocket 4.3 16:21:26 10° ESE 16:24:14 19° ENE 16:27:05 10° NNE
Cosmos 839 Rocket 4.1 16:18:34 10° NW 16:24:44 68° NE 16:31:32 10° SE
CSL-04 Rocket 4.0 16:20:24 10° SE 16:25:36 44° ENE 16:30:47 10° N
Unknown 3.7 16:21:44 10° WSW 16:25:52 79° NNW 16:30:02 10° ENE
Cosmos 1328 4.3 16:22:41 10° N 16:26:27 38° ENE 16:30:09 10° SE
Cosmos 2263 Rocket 3.9 16:21:29 10° WSW 16:26:28 31° NW 16:31:28 10° NNE
Abrixas rocket 4.3 16:25:21 10° S 16:26:54 13° SE 16:28:27 10° ESE
Cosmos 1503 Rocket 4.5 16:22:20 10° NNW 16:27:29 67° WSW 16:32:36 10° S
Cosmos 1626 3.7 16:24:05 10° NNW 16:27:38 42° W 16:31:09 10° SSW
Cosmos 1242 Rocket 2.8 16:25:12 10° N 16:28:48 47° ENE 16:32:21 10° SSE
Unknown 3.0 16:26:29 10° WNW 16:29:06 55° SSW 16:31:43 10° SE
Unknown 3.7 16:25:06 10° WSW 16:29:15 77° NNW 16:33:25 10° ENE
Unknown 3.7 16:26:45 10° WSW 16:30:53 76° NNW 16:35:02 10° ENE
Cosmos 1758 Rocket 4.1 16:27:13 10° NNW 16:31:39 67° W 16:36:06 10° S
Cosmos 1777 Rocket 4.3 16:27:22 10° NNW 16:32:23 44° ENE 16:37:22 10° SE
Unknown 3.8 16:28:40 10° WSW 16:32:48 71° NNW 16:36:57 10° ENE
Cosmos 1726 2.6 16:30:49 10° SSE 16:34:10 35° E 16:37:32 10° NNE
Unknown 3.8 16:30:02 10° WSW 16:34:10 73° NNW 16:38:17 10° ENE
Unknown 3.8 16:31:44 10° WSW 16:35:52 72° NNW 16:39:55 11° ENE
Unknown 2.8 16:34:09 10° WNW 16:37:16 77° NNE 16:40:11 12° ESE
Unknown 3.8 16:35:06 10° WSW 16:39:14 70° NNW 16:43:09 11° ENE
Cosmos 1833 Rocket 3.1 16:35:22 10° NNW 16:40:42 41° NE 16:46:00 10° ESE
Unknown 3.8 16:36:46 10° WSW 16:40:55 69° NNW 16:44:45 12° ENE
ATLAS CENTAUR R/B 4.0 16:39:52 10° NNW 16:41:26 11° N 16:43:00 10° NNE
Unknown 3.8 16:38:27 10° WSW 16:42:35 68° NNW 16:46:21 12° ENE
Unknown 3.8 16:40:07 10° WSW 16:44:15 67° NNW 16:47:56 13° ENE
Cosmos 1271 Rocket 3.5 16:42:00 10° NNW 16:45:56 58° W 16:49:51 10° S
Unknown 3.9 16:43:26 10° W 16:47:33 65° NNW 16:51:07 14° ENE
Unknown 4.1 16:45:07 10° WNW 16:48:42 42° N 16:51:30 15° ENE
CZ-4 R/B 1.4 16:44:36 10° SSE 16:48:46 75° ENE 16:53:01 10° N
Unknown 3.9 16:44:51 10° W 16:48:58 63° NNW 16:52:27 14° ENE
SKYMED 2 3.6 16:44:48 10° NNE 16:49:08 63° E 16:53:26 10° S
Unknown 4.0 16:45:24 10° W 16:49:31 61° NNW 16:52:58 14° ENE
Unknown 4.0 16:47:03 10° W 16:51:09 60° NNW 16:54:33 15° ENE
YAOGAN 1 2.5 16:49:25 10° SSE 16:53:41 66° ENE 16:58:00 10° N
CZ-2D R/B 3.8 16:50:19 10° SE 16:53:52 36° ENE 16:57:28 10° N
Unknown 3.9 16:50:08 10° W 16:54:15 62° NNW 16:57:31 16° ENE
H-2A R/B 3.6 16:55:06 15° ENE 16:56:48 17° NE 17:00:14 10° NNE
Unknown 4.0 16:53:28 10° W 16:57:34 60° NNW 17:00:42 17° ENE
Meteor 2-10 3.9 16:52:50 10° S 16:57:51 65° E 17:02:50 10° NNE
Unknown 4.0 16:54:40 10° W 16:58:43 56° NNW 17:01:44 17° ENE
Unknown 4.0 16:55:10 10° W 16:59:16 59° NNW 17:02:20 17° ENE
Unknown 4.0 16:56:48 10° W 17:00:55 59° NNW 17:03:54 18° ENE
Unknown 4.1 16:57:24 10° W 17:01:23 51° N 17:04:12 18° ENE
Unknown 4.0 16:58:30 10° W 17:02:36 58° NNW 17:05:31 18° ENE
Cosmos 2082 Rocket 2.6 16:59:24 10° NNW 17:04:53 44° NE 17:09:12 16° ESE
Cosmos 1726 Rocket 4.1 17:00:46 10° SSW 17:05:07 62° WNW 17:09:28 10° N
Unknown 4.2 17:02:49 10° WNW 17:06:30 43° N 17:08:42 21° ENE
Cosmos 2228 3.8 17:02:41 10° SSW 17:07:00 55° WNW 17:11:17 10° N
Unknown 4.1 17:05:07 10° W 17:09:11 55° NNW 17:11:50 21° ENE
YAOGAN 6 3.0 17:06:02 10° S 17:09:40 66° W 17:13:18 10° NNW
CSL-04 Debris 4.2 17:04:19 10° SSE 17:09:47 87° WSW 17:15:18 10° NNW
Unknown 4.1 17:06:52 10° W 17:10:56 55° NNW 17:13:30 21° ENE
Cosmos 1703 3.4 17:07:12 10° NNW 17:11:09 78° W 17:15:03 10° S
ASTEX 1 3.6 17:06:13 10° N 17:11:11 77° W 17:16:08 10° SSW
Envisat 3.8 17:06:14 10° S 17:11:12 54° W 17:16:12 10° NNW
Gbstr 26 Del rocket 4.0 17:05:53 10° WNW 17:11:52 89° NNE 17:17:14 19° ESE
Shenzhou-11 Module 3.5 17:10:05 10° WSW 17:12:21 22° S 17:13:13 19° SSE
COSMOS 2406 3.6 17:06:41 10° NNW 17:12:26 67° WSW 17:18:07 10° SSE
Unknown 4.1 17:08:30 10° W 17:12:35 54° NNW 17:15:04 22° ENE
Unknown 4.1 17:10:10 10° W 17:14:14 54° NNW 17:16:39 22° ENE
Unknown 4.1 17:11:50 10° W 17:15:54 53° NNW 17:18:16 23° ENE
EO 1 Delta rocket 3.8 17:11:19 10° SSE 17:15:55 85° E 17:20:54 10° N
Cosmos 921 Rocket 3.7 17:12:07 10° SSW 17:16:34 59° WNW 17:21:00 10° NNE
Unknown 4.2 17:12:52 10° WNW 17:16:38 44° N 17:18:30 25° ENE
ATLAS 3B R/B 4.4 17:13:24 10° SE 17:13:56 11° SE 17:13:56 11° SE
FALCON 9 DEB 3.3 17:15:44 10° WNW 17:19:11 60° NNE 17:20:20 37° E
Cosmos 292 Rocket 3.7 17:14:28 10° SSW 17:19:12 88° WNW 17:24:00 10° NNE
Unknown 4.1 17:15:12 10° W 17:19:16 52° N 17:21:29 25° NE
Starlink (trailer) 4.1 17:16:51 10° W 17:20:55 52° N 17:23:03 25° NE
Unknown 3.1 17:17:32 10° WNW 17:20:56 66° NNE 17:21:58 40° E
Unknown 4.2 17:18:31 10° W 17:22:35 51° N 17:24:39 26° NE
Cosmos 2058 Rocket 3.6 17:18:41 10° SSW 17:22:59 61° WNW 17:27:20 10° N
Cosmos 1844 Rocket 3.9 17:18:01 10° SW 17:23:23 43° NW 17:28:46 10° NNE
Cosmos 1356 4.1 17:20:49 10° SSW 17:24:13 56° WNW 17:27:37 10° N
Unknown 4.2 17:20:11 10° W 17:24:14 51° N 17:26:14 27° NE
Cosmos 2058 3.6 17:21:13 10° N 17:25:04 33° ENE 17:25:24 32° E
SJ-6B 4.3 17:27:58 20° NE 17:27:58 20° NE 17:29:47 10° NNE
Cosmos 1339 Rocket 4.4 17:21:06 10° S 17:27:10 81° E 17:33:21 10° N
Unknown 3.3 17:24:36 10° WNW 17:28:05 60° NNE 17:28:53 45° ENE
DMSP B5D1-3 4.4 17:23:15 10° NNE 17:28:23 66° ESE 17:33:30 10° S
Unknown 4.2 17:26:34 10° W 17:30:36 50° N 17:32:18 30° NE
Unknown 4.2 17:26:53 10° W 17:30:55 50° N 17:32:37 30° NE
CZ-2C R/B 4.5 17:30:58 23° ENE 17:31:18 23° ENE 17:35:42 10° N
Unknown 4.2 17:27:31 10° W 17:31:33 50° N 17:33:14 30° NE
USA 116 3.5 17:28:36 10° N 17:31:44 67° WNW 17:35:02 10° SSW
Cosmos 1459 Rocket 4.2 17:28:17 10° N 17:34:16 47° ENE 17:38:28 20° SE
Unknown 4.2 17:31:09 10° W 17:35:11 49° N 17:36:41 32° NE
Unknown 4.2 17:31:56 10° W 17:35:59 49° N 17:37:27 33° NE
COSMO-SKYMED 1 3.8 17:33:02 10° N 17:37:11 44° WNW 17:41:18 10° SW
Falcon 9 debris 3.0 17:34:11 10° WNW 17:37:39 78° NNE 17:38:02 66° E
Unknown 4.2 17:33:43 10° W 17:37:45 48° N 17:39:09 34° NE
BREEZE-M DEB (TANK) 4.2 17:33:13 10° WNW 17:37:49 69° SSW 17:47:33 18° SE
Cosmos 1605 Rocket 4.3 17:32:49 10° NNW 17:39:00 69° W 17:45:03 10° S
Lacrosse 5 1.8 17:34:41 10° NW 17:39:47 80° NE 17:41:43 38° ESE
Unknown 4.2 17:37:03 10° W 17:41:05 48° N 17:42:20 35° NE
SJ 16-02 2.8 17:37:45 10° N 17:40:24 22° NE 17:40:24 22° NE
Unknown 4.2 17:37:21 10° W 17:41:23 48° N 17:42:37 36° NE
Cosmos 1908 3.9 17:37:56 10° SSW 17:41:47 55° WNW 17:45:38 10° N
USA 238 DEB 3.8 17:35:39 10° SSW 17:42:05 51° ESE 17:46:22 22° NE
USA 238 3.8 17:35:47 10° SSW 17:42:12 51° ESE 17:46:25 23° NE
Unknown 4.2 17:38:37 10° W 17:42:39 48° N 17:43:50 36° NE
Unknown 4.2 17:41:47 10° W 17:45:49 48° N 17:46:52 38° NE
Cosmos 2278 Rocket 2.1 17:41:24 10° SSW 17:47:05 87° ESE 17:52:49 10° NNE
MOS 1 4.2 17:42:58 17° SSE 17:47:20 70° ENE 17:52:58 10° NNW
ATLAS 5 CENTAUR R/B 3.6 17:45:21 10° W 17:49:10 25° NNW 17:53:17 11° NNE
Unknown 4.3 17:45:17 10° W 17:49:18 47° N 17:50:11 40° NNE
Cosmos 1727 Rocket 3.9 17:43:51 10° S 17:50:02 83° E 17:56:14 10° N
Unknown 3.1 17:47:14 10° WNW 17:50:40 80° N 17:50:40 80° N
Unknown 4.2 17:46:58 10° W 17:51:00 47° N 17:51:48 41° NNE
IRS-1A Rocket 4.2 17:46:30 10° SSE 17:52:00 86° WSW 17:57:34 10° NNW
Unknown 4.2 17:48:37 10° W 17:52:38 47° N 17:53:23 42° NNE
Resurs 01 Rocket 3.7 17:55:09 15° NNE 17:55:09 15° NNE 17:56:23 10° NNE
Ariane Rocket 3.2 17:48:38 10° S 17:53:43 73° WSW 17:58:51 10° NNW
Unknown 4.2 17:50:17 10° WNW 17:54:18 47° N 17:54:59 42° NNE
Okean 3 Rocket 4.2 17:53:15 10° N 17:56:45 41° NE 17:56:45 41° NE
Unknown 4.2 17:53:40 10° WNW 17:57:41 46° N 17:58:12 44° NNE
Cosmos 1802 Rocket 4.0 17:51:58 10° N 17:58:21 59° ENE 18:01:02 35° SE
Cosmos 1939 Rocket 3.8 17:54:58 10° S 17:58:49 49° W 18:02:46 10° NNW
Cosmos 2173 Rocket 3.9 17:52:34 10° N 17:58:52 70° ENE 18:02:38 25° SSE
Unknown 4.2 17:55:23 10° WNW 17:59:24 46° N 17:59:51 44° NNE
Unknown 4.2 17:56:59 10° WNW 18:01:00 46° N 18:01:22 45° NNE
Abrixas rocket 4.0 17:59:18 10° WSW 18:00:46 24° SW 18:00:46 24° SW
Unknown 4.2 17:58:38 10° WNW 18:02:39 46° N 18:02:57 45° NNE
Unknown 4.2 17:59:04 10° WNW 18:03:05 46° N 18:03:22 45° NNE
Cosmos 1461 3.6 17:59:21 10° NW 18:03:18 50° WSW 18:04:27 38° S
Unknown 4.2 18:01:47 10° WNW 18:05:48 46° N 18:05:58 46° N
NOSS 3-2 (A) 3.4 18:01:28 10° SSW 18:07:08 59° ESE 18:08:34 48° ENE
Unknown 4.3 18:05:11 10° WNW 18:09:12 46° N 18:09:13 46° N
Unknown 4.3 18:06:49 10° WNW 18:10:46 46° N 18:10:46 46° N
Cosmos 2084 Rocket 3.4 18:06:45 10° NW 18:11:03 83° NNW 18:11:03 83° NNW
Cosmos 1937 Rocket 3.9 18:06:50 10° NNW 18:11:09 44° NE 18:11:09 44° NE
Unknown 4.3 18:08:45 10° WNW 18:12:37 46° N 18:12:37 46° N
NOSS 3-3 (C) 4.5 18:05:30 10° NW 18:12:58 83° SW 18:16:55 34° SSE
Unknown 4.3 18:10:07 10° WNW 18:13:56 46° N 18:13:56 46° N
Unknown 4.4 18:11:49 10° WNW 18:15:34 45° NNW 18:15:34 45° NNW
Cosmos 990 Rocket 4.0 18:12:16 10° NNW 18:17:12 64° NE 18:17:12 64° NE
SPOT 3 Rocket 3.4 18:17:55 74° ESE 18:18:12 77° ENE 18:23:26 10° NNW
Cosmos 1725 Rocket 4.0 18:12:06 10° N 18:18:17 56° ENE 18:18:21 56° ENE
Unknown 4.5 18:15:12 10° WNW 18:18:48 44° NNW 18:18:48 44° NNW
ARGOS 3.1 18:19:44 64° ENE 18:19:44 64° ENE 18:24:56 10° N
Cosmos 1000 Rocket 4.3 18:14:20 10° S 18:20:31 78° E 18:26:48 10° NNE
Cosmos 1812 Rocket 4.4 18:16:49 10° SSW 18:21:08 51° WNW 18:25:31 10° N
Cosmos 2100 Rocket 4.0 18:15:06 10° NNW 18:21:19 78° W 18:25:38 21° S
ATLAS CENTAUR R/B 3.7 18:19:20 10° NNW 18:21:38 16° NNE 18:21:38 16° NNE
Cosmos 1833 Rocket 3.9 18:19:26 10° NW 18:24:37 39° WSW 18:28:56 14° S
BREEZE-M DEB (TANK) 3.3 18:21:49 10° WSW 18:28:00 49° SW 18:28:00 49° SW
NOSS 3-2 (C) 4.2 18:25:12 10° SSW 18:28:34 36° S 18:28:34 36° S
H-2A R/B 2.1 18:35:44 82° NNW 18:35:44 82° NNW 18:40:56 10° NNW
Cosmos 2016 Rocket 4.0 18:36:33 10° N 18:42:51 83° W 18:43:50 65° S
Meteor 2-1 Rocket 4.3 18:39:36 10° SSW 18:45:05 69° WNW 18:50:41 10° N
ADEOS Rocket 3.3 18:37:54 10° NNE 18:45:43 81° ESE 18:52:58 10° SSW
Cosmos 2082 Rocket 3.5 18:43:43 10° NW 18:48:54 36° WSW 18:51:05 27° SSW
SL-08 R/B 4.3 18:42:54 10° N 18:48:52 84° NW 18:48:52 84° NW
Cosmos 1898 Rocket 4.1 18:52:12 10° NNW 18:56:42 54° WNW 18:56:42 54° WNW
Cosmos 2061 Rocket 4.4 18:56:55 10° NNW 19:03:02 57° W 19:04:09 50° SW
ATLAS 3B R/B 4.3 18:59:34 10° SSW 19:01:17 19° SSW 19:01:17 19° SSW
CZ-2C R/B 3.9 19:12:02 52° NW 19:12:02 52° NW 19:16:25 10° NNW
SJ 16-02 3.7 19:15:55 10° NNW 19:17:24 20° NW 19:17:24 20° NW
Lacrosse 5 3.9 19:18:12 10° WNW 19:20:56 22° WSW 19:20:56 22° WSW
Resurs 01 Rocket 4.3 19:32:43 15° NNW 19:32:43 15° NNW 19:33:34 10° NNW
Cosmos 2278 Rocket 4.3 19:27:31 10° W 19:31:55 22° NW 19:36:22 10° N
USA 238 DEB 4.4 19:26:36 10° WSW 19:33:08 49° NW 19:33:52 47° NNW
USA 238 4.4 19:26:42 10° WSW 19:33:15 49° NW 19:33:55 48° NNW
ATLAS 5 CENTAUR R/B 4.4 19:32:25 10° NW 19:34:48 16° N 19:34:48 16° N
